• Join FlightAware (Why Join?)
  • Login
  • US Flag GB Flag 
21:16 EDT


 

Airport Tracker/Info


-or-


 

Live Flight TrackerFlight Track Log ✈ CPT7773 ✈ 11-Jul-2014 ✈ KCOD - KCPR

Flight Track Log - Related Links

Times and Time Zones

All times are in EDT time to prevent confusion due to time zone crossing. See the CPT7773 flight status page for this flight to view local times or setup timezone preferences in your user account.

Time Position Orientation Groundspeed Altitude Reporting Facility
EDT Latitude Longitude Course Direction KTS MPH feet Rate Location/Type
20:11 44.4669 -108.8836 129° Southeast 124 143 8,800  Level Salt Lake Center
20:12 44.4397 -108.8361 129° Southeast 127 146 9,900 960 Climbing Salt Lake Center
20:13 44.4169 -108.7964 129° Southeast 127 146 10,800 480 Climbing Salt Lake Center
20:14 44.3961 -108.7550 125° Southeast 128 147 11,000 60 Climbing Salt Lake Center
20:15 44.3689 -108.7056 128° Southeast 139 160 11,000  Level Salt Lake Center
20:16 44.3411 -108.6519 126° Southeast 154 177 11,000  Level Salt Lake Center
20:17 44.3142 -108.5983 125° Southeast 163 188 11,000  Level Salt Lake Center
20:18 44.2811 -108.5389 128° Southeast 164 189 11,100  Climbing Salt Lake Center
20:20 44.2539 -108.4903 128° Southeast 164 189 11,100  Level Salt Lake Center
20:21 44.2281 -108.4417 127° Southeast 163 188 11,100  Level Salt Lake Center
20:22 44.2011 -108.3922 127° Southeast 163 188 11,100 -60 Level Salt Lake Center
20:23 44.1669 -108.3517 140° Southeast 163 188 11,000  Descending Salt Lake Center
20:24 44.1208 -108.3133 149° Southeast 163 188 11,100  Climbing Salt Lake Center
20:25 44.0831 -108.2772 146° Southeast 163 188 11,100  Level Salt Lake Center
20:26 44.0461 -108.2406 144° Southeast 163 188 11,100  Level Salt Lake Center
20:27 44.0103 -108.1989 140° Southeast 163 188 11,100 -60 Level Salt Lake Center
20:28 43.9828 -108.1483 127° Southeast 165 190 11,000  Descending Salt Lake Center
20:29 43.9633 -108.0906 115° Southeast 166 191 11,100  Climbing Salt Lake Center
20:30 43.9394 -108.0247 117° Southeast 165 190 11,100  Level Salt Lake Center
20:31 43.9239 -107.9675 111° Southeast 164 189 11,100  Level Salt Lake Center
20:32 43.9072 -107.9100 112° Southeast 164 189 11,100  Level Salt Lake Center
20:33 43.8914 -107.8536 111° Southeast 163 188 11,100  Level Salt Lake Center
20:34 43.8756 -107.7944 110° East 163 188 11,100  Level Salt Lake Center
20:35 43.8572 -107.7375 114° Southeast 163 188 11,100  Level Salt Lake Center
20:36 43.8225 -107.6781 129° Southeast 163 188 11,100  Level Salt Lake Center
20:37 43.7956 -107.6289 127° Southeast 163 188 11,100  Level Salt Lake Center
20:38 43.7697 -107.5789 126° Southeast 163 188 11,100  Level Salt Lake Center
20:39 43.7431 -107.5267 125° Southeast 163 188 11,100 -120 Level Salt Lake Center
20:40 43.7161 -107.4750 126° Southeast 163 188 10,900 -60 Descending Salt Lake Center
20:41 43.6892 -107.4228 125° Southeast 163 188 11,000  Climbing Salt Lake Center
20:42 43.6567 -107.3589 125° Southeast 164 189 11,000  Level Salt Lake Center
20:43 43.6297 -107.3075 126° Southeast 164 189 11,000  Level Salt Lake Center
20:44 43.6028 -107.2553 125° Southeast 165 190 11,000  Level Salt Lake Center
20:45 43.5758 -107.2056 127° Southeast 165 190 11,000  Level Salt Lake Center
20:46 43.5506 -107.1544 124° Southeast 164 189 11,000  Level Salt Lake Center
20:47 43.5236 -107.1025 126° Southeast 164 189 11,000  Level Salt Lake Center
20:48 43.4911 -107.0406 126° Southeast 165 190 11,000  Level Salt Lake Center
20:49 43.4647 -106.9903 126° Southeast 165 190 11,000  Level Salt Lake Center
20:50 43.4375 -106.9394 126° Southeast 165 190 11,100  Climbing Salt Lake Center
20:51 43.4119 -106.8892 125° Southeast 165 190 11,100 -60 Level Salt Lake Center
20:52 43.3931 -106.8472 122° Southeast 164 189 11,000 -60 Descending Denver Center
20:53 43.3664 -106.8000 128° Southeast 164 189 11,000  Level Denver Center
20:54 43.3397 -106.7508 127° Southeast 164 189 11,000  Level Denver Center
20:56 43.3014 -106.6761 125° Southeast 165 190 11,100 -300 Climbing Salt Lake Center
20:57 43.2514 -106.6408 153° Southeast 182 209 10,300 -780 Descending Salt Lake Center
20:57 43.2203 -106.6236 158° South 192 221 9,800 -780 Descending Denver Center
20:58 43.1653 -106.5936 158° South 192 221 9,000 -720 Descending Denver Center
20:59 43.1175 -106.5697 160° South 192 221 8,400 -780 Descending Denver Center
21:00 43.0603 -106.5419 160° South 192 221 7,400 -780 Descending Denver Center
21:02 43.0125 -106.5186 160° South 192 221 6,900 -420 Descending Denver Center
21:03 42.9636 -106.4925 159° South 184 212 6,600 -120 Descending Denver Center
21:04 42.9294 -106.4803 165° South 160 184 6,700  Climbing Denver Center
21:05 42.9033 -106.5156 225° Southwest 147 169 6,700  Level Denver Center